{"data":{"norad_id":52866,"intl_designator":"2022-062AN","name":"STARLINK-4272","alt_names":[],"object_type":"PAYLOAD","status":"ACTIVE","operator":null,"country":"US","launch_date":"2022-06-17","launch_site_code":"AFETR","launch_vehicle":null,"mission":null,"orbit_class":"UNKNOWN","rcs_meters":null,"size_class":null,"mass_kg":null,"dimensions":null,"purposes":["comms"],"wikipedia_slug":null,"has_3d_model":false,"image_url":null,"decayed_at":null,"tle_current":{"epoch":"2026-05-25T02:29:24.233280Z","epoch_age_seconds":62763,"freshness":"FRESH","line1":"1 52866U 22062AN  26145.10375270 -.00000960  00000+0 -42226-4 0  9998","line2":"2 52866  53.2129  41.0846 0001562  63.8605 296.2547 15.08846412217460","mean_motion":15.08846412,"eccentricity":0.0001562,"inclination_deg":53.2129,"raan_deg":41.0846,"arg_perigee_deg":63.8605,"mean_anomaly_deg":296.2547,"bstar":-4.2226e-5,"rev_number":21746,"period_min":95.437149105936,"perigee_km":538.64322025925,"apogee_km":540.80435997009,"semimajor_km":6917.8607901147,"source":"CELESTRAK","updated_at":"2026-05-25T13:38:17.248487Z"}}}